Sparrevohn, AK

11:39 AM AKDT on April 27, 2017 (GMT -0800)
Sparrevohn LRRS

Weather History for PASV - February, 2014

Change the Weather History Date:

Wednesday, February 26, 2014

  Actual Average Record
Temperature  
Mean Temperature 44 °F -  
Max Temperature 50 °F 26 °F 50 °F (2014)
Min Temperature 39 °F 12 °F -2 °F (2008)
Degree Days  
Heating Degree Days 20    
Moisture  
Dew Point 26 °F    
Average Humidity 47    
Maximum Humidity 61    
Minimum Humidity 25    
Precipitation  
Precipitation 0.00 in - - ()
Sea Level Pressure  
Sea Level Pressure 29.61 in    
Wind  
Wind Speed 9 mph (NE)    
Max Wind Speed 21 mph    
Max Gust Speed 28 mph    
Visibility 10 miles    
Events      
Averages and records for this station are not official NWS values.
T = Trace of Precipitation, MM = Missing Value Source: NWS Daily Summary

Daily Weather History Graph

Daily Weather History Graph

Search for Another Location

Airport or City:

Trip Planner

Search our weather history database for the weather conditions in past years. The results will help you decide how hot, cold, wet, or windy it might be!

Date:

Astronomy

Feb. 26, 2014 Rise Set
Actual Time 8:31 AM AKST 6:40 PM AKST
Civil Twilight 7:47 AM AKST 7:23 PM AKST
Nautical Twilight 6:57 AM AKST 8:13 PM AKST
Astronomical Twilight 6:07 AM AKST 9:04 PM AKST
Moon 7:01 AM AKST (2/26) 3:37 PM AKST (2/26)
Length of Visible Light 11h 36m
Length of Day
10h 09m
Waning Crescent, 9% of the Moon is Illuminated
Feb 26
Waning Crescent
Feb 28
New
Mar 8
First Quarter
Mar 16
Full
Mar 23
Last Quarter

Hourly Weather History & Observations

Time (AKST) Temp. Windchill Dew Point Humidity Pressure Visibility Wind Dir Wind Speed Gust Speed Precip Events Conditions
12:55 AM 41.0 °F 35.2 °F 7.0 °F 25% 29.71 in 10.0 mi NE 9.2 mph - N/A   Overcast
1:55 AM 41.0 °F 35.2 °F 9.0 °F 27% 29.70 in 10.0 mi NE 9.2 mph 17.3 mph N/A   Overcast
2:55 AM 39.2 °F 34.2 °F 12.6 °F 34% 29.70 in 10.0 mi NE 6.9 mph - N/A   Overcast
3:55 AM 40.3 °F 34.4 °F 19.2 °F 43% 29.69 in 10.0 mi NNE 9.2 mph - N/A   Mostly Cloudy
4:55 AM 40.8 °F 34.5 °F 21.6 °F 46% 29.68 in 10.0 mi ENE 10.4 mph - N/A   Mostly Cloudy
5:55 AM 42.1 °F 37.1 °F 22.6 °F 46% 29.69 in 10.0 mi East 8.1 mph - N/A   Mostly Cloudy
6:55 AM 42.3 °F 34.1 °F 23.9 °F 48% 29.66 in 10.0 mi East 17.3 mph 25.3 mph N/A   Mostly Cloudy
7:55 AM 43.3 °F 34.7 °F 24.6 °F 48% 29.64 in 10.0 mi ESE 20.7 mph 27.6 mph N/A   Mostly Cloudy
8:55 AM 43.0 °F 37.2 °F 25.3 °F 50% 29.64 in 10.0 mi ENE 10.4 mph - N/A   Overcast
9:55 AM 43.7 °F 39.7 °F 25.7 °F 49% 29.62 in 10.0 mi NNE 6.9 mph - N/A   Overcast
10:55 AM 44.8 °F 39.0 °F 26.2 °F 48% 29.62 in 10.0 mi NE 11.5 mph - N/A   Mostly Cloudy
11:55 AM 45.5 °F 41.8 °F 26.6 °F 48% 29.61 in 10.0 mi NNE 6.9 mph - N/A   Overcast
12:55 PM 45.5 °F 41.3 °F 27.5 °F 49% 29.60 in 10.0 mi NE 8.1 mph - N/A   Overcast
1:55 PM 47.5 °F - 27.9 °F 47% 29.58 in 10.0 mi NNE 6.9 mph - N/A   Overcast
2:28 PM 48.2 °F - 28.4 °F 46% 29.58 in 10.0 mi NE 6.9 mph - N/A   Overcast
2:55 PM 48.2 °F - 28.8 °F 47% 29.57 in 10.0 mi East 9.2 mph - N/A   Overcast
3:55 PM 50.0 °F - 30.0 °F 46% 29.55 in 10.0 mi ESE 8.1 mph 17.3 mph N/A   Overcast
4:55 PM 50.2 °F - 30.7 °F 47% 29.54 in 10.0 mi Variable 6.9 mph - N/A   Mostly Cloudy
5:55 PM 49.8 °F - 31.6 °F 50% 29.54 in 10.0 mi Variable 6.9 mph - N/A   Mostly Cloudy
6:55 PM 49.1 °F - 32.0 °F 52% 29.55 in 10.0 mi SE 12.7 mph 18.4 mph N/A   Mostly Cloudy
7:55 PM 49.3 °F - 32.4 °F 52% 29.55 in 10.0 mi SE 12.7 mph 19.6 mph N/A   Mostly Cloudy
8:55 PM 46.2 °F 43.3 °F 32.4 °F 58% 29.56 in 10.0 mi Variable 5.8 mph - N/A   Overcast
9:55 PM 45.9 °F 43.6 °F 32.4 °F 59% 29.56 in 10.0 mi West 4.6 mph - N/A   Overcast
10:55 PM 45.5 °F 42.5 °F 32.5 °F 61% 29.57 in 10.0 mi WNW 5.8 mph - N/A   Overcast
11:55 PM 45.3 °F 43.0 °F 32.7 °F 61% 29.58 in 10.0 mi NW 4.6 mph - N/A   Mostly Cloudy